This demonstration page uses our WeatherBlox Daily Observations layout. Learn more.

39.08367, -84.50855

Hourly Observations for July 4, 2019

Temp ( °F °C ) Dew Point ( °F °C ) Humidity (%) Winds ( mph kmh ) Pressure ( in mb ) Visibility ( mi km ) Precip ( " mm )
12:53 am 00:53 Clear 71 21.7 70 21.1 96 96 SSW 3 6 29.94 1014 9 14.484096 0 0
1:53 am 01:53 Clear 71 21.7 70 21.1 96 96 Calm 29.94 1014 9 14.484096 0 0
2:08 am 02:08 Mostly Clear 71 21.7 70 21.1 96 96 Calm 29.94 1014 8 12.874752 0 0
2:53 am 02:53 Clear 70 21.1 69 20.6 97 97 SSW 5 7 29.94 1014 8 12.874752 0 0
3:20 am 03:20 Mostly Cloudy 71 21.7 70 21.1 96 96 Calm 29.94 1014 10 16.09344 0 0
3:39 am 03:39 Cloudy 72 22.2 70 21.1 94 94 SSE 5 7 29.94 1014 9 14.484096 0 0
3:53 am 03:53 Cloudy 72 22.2 70 21.1 94 94 Calm 29.97 1015 10 16.09344 0 0
4:29 am 04:29 Mostly Cloudy 71 21.7 70 21.1 96 96 SSW 6 9 29.97 1015 9 14.484096 0 0
4:53 am 04:53 Cloudy 71 21.7 70 21.1 96 96 S 3 6 29.97 1015 9 14.484096 0 0
5:08 am 05:08 Cloudy 72 22.2 70 21.1 94 94 S 3 6 29.97 1015 10 16.09344 0 0
5:53 am 05:53 Mostly Cloudy 71 21.7 70 21.1 96 96 SSW 3 6 29.94 1014 9 14.484096 0 0
6:02 am 06:02 Mostly Cloudy 70 21.1 69 20.6 97 97 S 5 7 29.97 1015 8 12.874752 0 0
6:21 am 06:21 Mostly Cloudy with Mist and Fog 70 21.1 69 20.6 97 97 SSW 6 9 29.97 1015 6 9.656064 0 0
6:53 am 06:53 Cloudy with Mist and Fog 72 22.2 70 21.1 94 94 SSW 3 6 29.97 1015 5 8.04672 0 0
7:53 am 07:53 Cloudy with Mist and Fog 72 22.2 70 21.1 94 94 SW 3 6 30 1016 4 6.437376 0 0
8:53 am 08:53 Cloudy with Mist and Fog 73 22.8 70 21.1 90 90 Calm 30 1016 4 6.437376 0 0
9:53 am 09:53 Mostly Cloudy with Mist and Fog 74 23.3 70 21.1 88 88 Calm 30.03 1017 6 9.656064 0 0
10:20 am 10:20 Partly Cloudy 77 25 71 21.7 82 82 Calm 30 1016 7 11.265408 0 0
10:53 am 10:53 Mostly Sunny 79 26.1 72 22.2 79 79 VRB 3 6 30.03 1017 10 16.09344 0 0
11:53 am 11:53 Partly Cloudy 82 27.8 72 22.2 72 72 S 6 9 30.03 1017 10 16.09344 0 0
12:53 pm 12:53 Partly Cloudy 84 28.9 71 21.7 65 65 VRB 3 6 30 1016 10 16.09344 0 0
1:53 pm 13:53 Partly Cloudy 87 30.6 72 22.2 61 61 S 8 13 30 1016 10 16.09344 0 0
2:53 pm 14:53 Partly Cloudy 87 30.6 71 21.7 59 59 VRB 3 6 29.97 1015 10 16.09344 0 0
3:53 pm 15:53 Mostly Cloudy with Light Thunderstorms 83 28.3 71 21.7 67 67 NW 14 22 29.97 1015 5 8.04672 0.001 0.001
4:06 pm 16:06 Windy with Storms Likely 74 23.3 70 21.1 88 88 W 22 35 29.97 1015 2 3.218688 0.06 1.524
4:13 pm 16:13 Mostly Cloudy with Light Thunderstorms 74 23.3 69 20.6 85 85 W 13 20 29.97 1015 3 4.828032 0.09 2.286
4:38 pm 16:38 Cloudy with Light Thunderstorms 76 24.4 72 22.2 88 88 Calm 29.97 1015 6 9.656064 0.16 4.064
4:53 pm 16:53 Mostly Cloudy with Light Thunderstorms 76 24.4 73 22.8 91 91 SSW 6 9 29.97 1015 10 16.09344 0.17 4.318
5:53 pm 17:53 Mostly Cloudy with Thunderstorms 76 24.4 72 22.2 88 88 S 6 9 29.97 1015 10 16.09344 0.001 0.001
6:01 pm 18:01 Partly Cloudy 77 25 72 22.2 85 85 SSE 3 6 29.94 1014 10 16.09344 0 0
6:53 pm 18:53 Partly Cloudy 83 28.3 72 22.2 70 70 S 3 6 29.94 1014 10 16.09344 0 0
7:53 pm 19:53 Sunny 82 27.8 71 21.7 69 69 Calm 29.97 1015 10 16.09344 0 0
8:53 pm 20:53 Sunny 77 25 73 22.8 88 88 SSW 3 6 29.97 1015 10 16.09344 0 0
9:53 pm 21:53 Clear 73 22.8 72 22.2 96 96 S 3 6 30 1016 10 16.09344 0 0
10:53 pm 22:53 Clear 73 22.8 72 22.2 96 96 Calm 30 1016 7 11.265408 0 0
11:53 pm 23:53 Mostly Clear with Light Rain 73 22.8 72 22.2 96 96 Calm 30.03 1017 4 6.437376 0.001 0.001

Powered by AerisWeather